Regional Weather Roundup
Issued by NWS

Home | Current Version | Previous Version | Graphics & Text | Print | Product List | Glossary On
Versions: 1 2 3 4 5 6 7 8 9 10 11 12 13 14 15 16 17 18 19 20 21 22 23 24 25 26 27 28 29 30 31 32 33 34 35 36 37 38 39 40 41 42 43 44 45 46 47 48 49 50
000
ASUS43 KDMX 230401
RWRIA

WEATHER ROUNDUP FOR IOWA
NATIONAL WEATHER SERVICE DES MOINES IA
1100 PM CDT TUE AUG 22 2017

NOTE: "FAIR" INDICATES FEW OR NO CLOUDS BELOW 12,000 FEET WITH NO
SIGNIFICANT WEATHER AND/OR OBSTRUCTIONS TO VISIBILITY.

* - THESE STATIONS ARE NOT NWS STATIONS...THUS NOT UNDER NWS
QUALITY CONTROL.  THEY ALSO DO NOT REPORT WEATHER SUCH
AS PRECIPITATION OR FOG.

IAZ001>003-012>014-020>022-031>034-043>046-230500-
   NORTHWEST IOWA

CITY           SKY/WX    TMP DP  RH WIND       PRES   REMARKS
CARROLL *      CLEAR     59  55  88 W8        30.14R
CHEROKEE *     CLEAR     54  53  99 CALM      30.15R
DENISON *      CLEAR     55  54  94 CALM      30.17R
LE MARS *      CLEAR    106 N/A N/A MISG      30.15R
ORANGE CITY *  CLEAR     59  54  82 CALM      30.16R
SHELDON *      CLEAR     52  50  93 CALM      30.13R
SIOUX CITY     CLEAR     58  57  97 CALM      30.16R
SPENCER        CLEAR     55  53  93 CALM      30.14R
STORM LAKE *   CLEAR     57  52  82 W7        30.15R
$$

IAZ055>058-069>071-079>083-090>094-230500-
   SOUTHWEST IOWA

CITY           SKY/WX    TMP DP  RH WIND       PRES   REMARKS
ATLANTIC *     CLEAR     57  55  94 CALM      30.15R
AUDUBON *      CLEAR     55  54  94 CALM      30.16R
CLARINDA *       N/A     55  55 100 CALM      30.18R
COUNCIL BLFS * CLEAR     64  54  68 N5        30.16R
CRESTON *      CLEAR     61  54  77 NW5       30.16S
HARLAN  *      CLEAR     55  55 100 CALM      30.19R
LAMONI         CLEAR     60  51  72 NW6       30.14R
RED OAK *      CLEAR     57  55  94 CALM      30.16R
SHENANDOAH *   CLEAR     57  55  94 CALM      30.17R
$$

IAZ047>049-059>061-072>074-084-230500-
   CENTRAL IOWA

CITY           SKY/WX    TMP DP  RH WIND       PRES   REMARKS
AMES           CLEAR     55  55 100 NW3       30.12R
ANKENY *       CLEAR     57  54  88 CALM      30.13R
BOONE *        CLEAR     63  52  67 NW6       30.12R
CHARITON *     CLEAR     59  52  77 W5        30.13R
DES MOINES     CLEAR     63  53  70 W5        30.12R
GRINNELL*      CLEAR     58  53  81 CALM      30.12R
KNOXVILLE *    CLEAR     59  52  77 W6        30.11R
MARSHALLTOWN   CLEAR     55  54  96 W5        30.10R
NEWTON *       CLEAR     61  52  72 CALM      30.12R
PELLA *        CLEAR     58  52  79 CALM      30.13R
PERRY *          N/A     56  55  95 W6        30.13R
$$

IAZ004>006-015-016-023>025-035-036-230500-
   NORTH CENTRAL IOWA

CITY           SKY/WX    TMP DP  RH WIND       PRES   REMARKS
ALGONA *       CLEAR     57  55  94 W5        30.13R
CLARION *      CLEAR     54  54 100 CALM      30.12S
ESTHERVILLE    CLEAR     54  53  97 W7        30.13R
FORT DODGE *   CLEAR     55  50  82 CALM      30.13R
MASON CITY     CLEAR     54  49  83 W7        30.12R
FOREST CITY *    N/A     52  52 100 CALM      30.11S
WEBSTER CITY * CLEAR     55  54  94 NW6       30.11R
IOWA FALLS *     N/A     56  53  92 W3        30.12S
$$

IAZ007>011-017>019-026>030-037>042-050>054-066-230500-
   NORTHEAST IOWA

CITY           SKY/WX    TMP DP  RH WIND       PRES   REMARKS
CEDAR RAPIDS   CLEAR     55  52  89 W7        30.08R
CHARLES CITY * CLEAR     55  54  94 NW6       30.10R
CLINTON *      CLEAR     56  53  90 W6        30.07R
DECORAH *      CLEAR     59  52  77 VRB5      30.06R
DUBUQUE        CLEAR     58  51  78 W6        30.06S
MONTICELLO *   CLEAR     57  54  88 CALM      30.07R
OELWEIN *      CLEAR     55  54  94 W6        30.09S
WATERLOO       CLEAR     55  52  89 W3        30.08S
$$

IAZ064-065-067-068-078-230500-
   EAST CENTRAL IOWA

CITY           SKY/WX    TMP DP  RH WIND       PRES   REMARKS
DAVENPORT      CLEAR     57  53  86 W3        30.09R
IOWA CITY      CLEAR     60  53  77 W5        30.10R
MUSCATINE *    CLEAR     59  54  82 W6        30.08S
QUAD CITIES    CLEAR     64  53  67 NW8       30.06R
$$

IAZ062-063-075>077-085>089-095>099-230500-
   SOUTHEAST IOWA

CITY           SKY/WX    TMP DP  RH WIND       PRES   REMARKS
BURLINGTON     CLEAR     62  54  74 NW6       30.08R
FAIRFIELD *    CLEAR     59  52  77 NW8       30.10R
FORT MADISON * CLEAR     59  55  88 CALM      30.10R
KEOKUK *       CLEAR     63  54  72 NW5       30.09R
OSKALOOSA *      N/A     55  53  91 W5        30.12R
OTTUMWA        CLEAR     55  53  93 W5        30.11R
WASHINGTON *   CLEAR     57  54  88 W6        30.11R
$$

ABBREVIATIONS USED IN REMARKS
   TC - TEMPERATURES IN CELSIUS
  WCI - WIND CHILL INDEX
   HX - HEAT INDEX
  VSB - VISIBILITY
$$





USA.gov is the U.S. government's official web portal to all federal, state and local government web resources and services.